Tracking 17142 objects as of 28-May-2015
HD Live streaming from Space Station

SL-12 R/B(AUX MOTOR)

Track SL-12 R/B(AUX MOTOR) now!
SL-12 R/B(AUX MOTOR) is classified as:


NORAD ID: 25053
Int'l Code: 1997-070E
Perigee: 1,099.3 km
Apogee: 33,063.7 km
Inclination: 46.3 °
Period: 595.7 minutes
Semi major axis: 23452 km
RCS: 0.8237 m2 (medium)
Launch date: November 12, 1997
Source: Commonwealth of Independent States (former USSR) (CIS)

Note: This is a ROCKET BODY
Your satellite tracking list
Your tracking list is empty





NASA's NSSDC Master Catalog

Two Line Element Set (TLE):
1 25053U 97070E   15143.55076764 -.00000096  00000-0  00000+0 0  9997
2 25053 046.3468 336.5418 6814719 320.1777 005.7817 02.41724217154144

Source of the keplerian elements: AFSPC

N2YO: 310